Theta_e
311 315 319 321 323 323 321 319 316 315 314 312 312 311 309 311 312 312 311 311 310 311 311 311 311 309 314 321 320 320 318 315 314 313 317 318 318 316 316 317 318 317 319 320 326 326 326
309 310 313 316 317 322 323 321 318 315 315 313 312 312 309 311 312 312 311 311 311 311 311 311 310 310 317 319 318 321 320 315 314 315 318 318 316 317 317 318 317 319 321 325 325 322 325
309 309 309 312 314 317 322 323 320 317 315 314 312 311 309 311 312 312 311 311 311 311 312 311 309 312 318 317 319 322 320 317 316 317 318 318 317 318 319 321 320 320 319 322 322 323 325
307 307 308 309 312 314 318 321 322 319 316 314 313 311 309 311 312 312 311 311 311 311 311 310 309 315 320 319 318 319 321 321 320 318 317 319 319 319 320 321 320 320 320 321 321 321 324
306 306 306 307 309 312 314 319 321 321 317 315 313 311 309 311 312 312 311 311 311 311 310 310 315 320 324 319 318 318 319 320 320 320 319 319 319 321 321 322 320 319 319 318 320 319 322
306 306 306 305 308 310 312 315 320 322 319 315 314 312 309 311 312 311 311 311 313 310 315 315 317 321 324 321 318 319 319 319 321 321 321 320 320 322 321 321 322 319 320 321 319 318 319
306 305 306 306 307 310 311 313 319 321 321 316 314 312 309 311 312 311 311 315 319 321 319 319 322 320 320 319 319 318 318 319 321 322 322 322 322 322 321 322 321 321 320 319 319 319 319
305 306 306 305 306 306 308 310 313 319 321 317 314 312 310 311 312 312 312 320 322 324 327 323 316 320 319 319 319 318 318 319 321 322 323 324 321 322 322 321 321 320 320 321 319 318 318
305 305 305 305 305 305 306 307 310 316 319 318 315 313 310 312 312 312 315 316 320 320 326 324 319 318 319 319 319 318 318 319 321 322 322 324 322 322 320 319 320 319 319 321 321 319 318
303 305 305 305 305 303 304 306 307 310 319 319 315 312 310 312 311 316 318 317 316 319 327 323 320 319 320 318 319 318 318 318 322 322 322 324 322 322 320 319 319 320 322 322 321 321 320
301 303 304 304 305 304 304 304 305 308 317 319 315 312 310 312 317 319 324 319 325 328 333 321 320 319 319 319 319 318 318 319 320 320 321 325 324 323 318 321 322 322 322 323 320 321 324
302 301 303 303 304 305 304 303 304 306 312 318 315 312 310 312 313 319 323 328 326 333 328 319 319 319 319 319 318 319 318 319 320 320 319 322 322 323 323 322 322 323 322 322 323 323 329
300 301 302 302 304 305 303 302 303 305 307 316 316 312 310 315 317 315 318 329 330 327 319 320 319 319 319 319 318 318 319 318 319 321 320 319 320 323 322 323 321 320 321 328 332 333 330
298 300 301 303 304 305 303 302 303 305 307 314 316 312 310 313 317 321 327 331 328 320 322 318 318 319 318 319 318 318 318 318 317 318 319 319 326 322 322 321 325 325 319 329 332 332 330
297 298 301 302 303 304 304 303 302 304 306 312 314 311 313 314 315 320 329 334 325 323 320 320 318 319 318 318 318 318 318 318 318 318 320 326 325 322 322 321 321 321 321 322 326 330 335
297 299 300 300 302 304 304 302 303 304 306 310 312 313 313 314 315 321 329 329 324 321 321 319 318 319 319 318 318 319 318 318 317 318 324 326 328 324 322 321 321 321 321 325 323 326 325
297 299 299 299 300 302 304 301 303 304 306 310 314 315 315 315 318 324 330 327 325 322 321 321 319 318 319 319 319 319 319 319 320 321 321 324 326 324 322 321 318 323 321 320 319 326 331
298 297 298 298 298 300 302 303 303 305 307 311 314 316 318 319 322 319 327 324 321 323 320 321 320 319 319 321 320 318 319 321 321 321 321 321 322 327 323 322 321 321 323 322 334 323 326
297 297 297 297 299 298 301 303 302 304 307 311 315 319 320 320 321 323 324 324 322 322 322 322 321 320 320 320 320 320 320 324 324 323 323 324 323 326 322 323 322 321 320 319 322 325 326
297 297 296 297 298 299 301 302 303 305 307 312 316 322 324 324 318 322 326 324 322 322 320 321 321 320 321 320 321 321 320 323 322 323 315 323 322 320 326 322 322 324 322 319 320 331 324
296 296 297 298 298 298 301 301 304 305 306 311 318 320 323 324 326 323 326 323 322 322 321 321 321 319 323 322 321 323 321 324 322 317 320 323 320 320 319 321 321 322 321 320 319 321 323
296 297 298 298 298 298 300 302 304 305 306 310 318 322 323 322 323 324 325 326 322 321 321 323 322 321 323 323 323 323 323 325 323 323 323 323 325 323 325 323 322 321 320 320 320 318 318
298 297 298 298 298 301 301 302 304 305 307 309 313 320 322 323 324 325 327 326 324 323 323 322 322 323 323 324 326 326 326 326 324 326 326 326 328 328 327 320 319 321 321 320 320 319 319
299 299 299 299 300 301 302 301 301 302 306 310 313 321 323 326 324 325 326 324 322 323 326 323 324 325 326 324 324 324 323 324 325 325 325 327 328 330 331 319 325 316 316 315 316 316 316
299 298 300 300 300 300 301 302 302 302 305 310 315 322 324 325 324 324 326 325 322 322 325 325 326 326 326 326 327 326 327 322 322 320 321 323 326 328 330 324 318 316 315 315 315 315 315
298 298 298 298 299 300 302 302 302 301 303 308 312 317 323 326 327 323 322 324 324 329 328 324 324 325 326 330 334 329 331 323 323 321 317 317 323 329 325 331 328 321 315 315 315 320 316
298 298 298 299 299 302 302 302 301 302 304 307 311 313 324 325 324 323 322 324 326 328 328 326 323 323 324 337 329 337 331 322 328 327 323 325 327 326 325 329 325 317 315 315 321 323 317
298 298 299 299 300 301 302 300 301 303 304 308 311 312 320 326 324 324 322 322 325 327 330 327 326 325 332 332 337 335 332 329 326 321 324 325 330 325 330 324 325 315 316 318 321 318 317
298 298 300 300 301 302 301 301 302 303 303 307 310 312 314 325 327 324 323 323 324 325 329 326 328 326 327 330 333 336 326 323 330 329 320 326 325 329 325 326 319 315 315 316 316 316 316
Wind_Speed
20 23 22 18 21 22 21 20 19 19 18 16 16 16 16 17 18 22 20 19 17 15 13 13 14 13 7 7 9 0 6 7 14 14 14 11 10 10 14 15 10 14 16 8 10 7 5
19 17 22 23 18 22 23 21 21 19 19 18 16 16 16 17 18 21 20 18 15 14 13 12 13 5 6 9 3 4 2 9 10 13 14 14 10 11 13 13 12 10 13 11 5 9 7
18 18 19 21 22 19 22 24 22 21 20 19 17 16 17 16 18 20 19 18 15 13 12 11 11 6 8 16 9 3 5 9 11 13 12 9 12 6 5 9 10 6 10 8 5 7 13
22 22 21 19 21 20 21 23 24 22 21 19 18 17 17 17 17 19 19 16 14 12 12 10 6 7 8 8 13 17 10 10 10 13 13 8 7 9 10 14 3 11 9 6 8 11 9
25 24 24 22 20 22 21 22 24 23 21 20 18 17 16 16 17 18 18 13 11 12 9 2 4 5 9 4 12 14 11 12 8 9 10 6 7 11 12 10 5 5 9 13 9 10 9
26 25 24 24 21 21 23 23 24 25 22 21 19 17 16 15 16 17 14 10 10 6 4 7 13 7 10 10 10 9 5 6 5 8 7 8 6 8 8 7 2 7 10 12 11 14 12
28 27 25 24 24 21 21 22 23 23 23 21 19 17 15 14 15 13 9 5 5 5 12 10 2 7 2 3 9 11 10 9 8 10 12 13 8 11 3 4 12 8 12 11 10 7 11
31 29 29 28 27 28 25 24 22 23 23 21 19 16 15 14 13 10 7 6 8 9 8 21 19 14 19 12 9 14 11 7 12 9 14 9 8 4 7 12 8 10 13 5 7 5 6
32 32 31 30 27 29 29 25 24 23 23 21 19 16 14 12 10 8 14 17 13 16 6 12 18 15 15 16 16 13 12 13 9 9 11 8 8 0 9 8 12 14 5 6 11 7 7
34 32 34 32 31 28 31 27 26 23 24 21 19 16 13 9 6 11 10 13 20 10 5 9 13 10 16 9 13 18 19 15 8 13 3 4 11 9 8 12 14 8 12 9 13 8 8
39 35 33 33 33 30 29 29 26 23 24 23 20 17 15 14 11 12 10 5 5 5 4 11 16 13 13 15 6 12 5 9 9 10 11 10 13 15 6 6 15 3 12 13 8 8 3
40 38 35 34 34 33 31 28 27 25 24 25 22 19 13 9 15 16 7 4 4 5 7 7 12 10 16 15 12 7 11 13 5 3 6 12 6 11 2 10 13 10 9 10 9 6 3
40 39 37 36 36 36 32 32 29 26 24 24 23 21 22 10 8 12 9 5 5 8 8 9 12 15 17 14 13 10 13 16 10 8 10 11 19 12 13 12 7 9 9 2 8 6 5
42 36 36 36 38 38 35 33 30 27 24 23 23 21 22 21 16 8 8 6 11 12 21 2 12 15 18 15 13 12 13 15 17 16 7 9 3 6 11 11 6 18 10 2 1 2 11
43 41 37 36 35 37 37 33 31 28 25 23 24 17 16 21 22 12 8 12 12 12 20 7 12 15 16 17 7 13 14 16 17 17 8 3 7 13 9 3 3 7 2 4 9 6 3
43 42 41 36 29 34 37 33 31 30 25 24 20 15 21 21 22 13 9 19 18 22 13 14 13 12 16 16 12 9 13 14 17 15 13 5 7 18 12 5 5 5 7 3 2 2 5
42 43 38 36 26 31 36 35 33 31 27 26 20 6 11 25 22 8 13 18 22 21 14 7 14 13 16 12 13 12 9 7 7 8 4 11 17 10 6 8 8 5 6 5 6 4 1
39 39 36 36 40 30 36 36 35 32 29 32 10 8 27 39 11 10 14 22 22 20 10 10 14 16 13 12 13 13 15 14 11 7 9 10 4 3 9 3 5 7 10 11 3 5 2
43 36 35 36 38 37 36 39 39 36 36 24 7 8 31 36 13 13 18 26 25 22 15 15 11 14 10 12 7 10 6 6 7 5 1 1 3 5 10 6 8 8 11 10 6 3 4
39 37 37 36 37 38 37 40 41 39 39 27 7 9 5 11 12 20 23 21 24 22 17 14 15 13 9 11 9 8 7 3 3 3 4 4 4 9 7 10 4 13 11 10 10 3 4
37 37 37 38 37 43 40 41 41 41 40 28 5 10 10 12 17 19 20 20 24 23 18 16 15 17 11 9 13 8 9 7 4 3 3 2 8 11 14 16 2 10 9 7 11 11 11
35 35 37 38 42 42 45 42 41 41 40 26 9 9 12 8 19 22 22 27 26 24 18 18 13 14 14 10 10 11 12 8 7 7 7 5 5 4 8 10 10 12 14 13 14 13 13
30 33 36 37 37 46 44 42 41 36 40 14 20 15 6 12 23 20 21 22 25 18 18 18 18 15 16 6 13 11 7 1 7 10 9 7 3 2 2 6 7 5 10 16 15 14 10
30 30 31 34 40 39 41 45 39 39 42 18 26 12 6 15 19 24 25 25 23 23 11 12 14 15 10 14 14 12 11 8 7 4 7 5 5 2 1 2 1 7 4 5 5 7 9
27 24 25 34 36 38 38 43 43 45 45 35 27 6 3 7 18 25 28 23 21 17 15 10 7 10 14 11 4 4 2 3 2 3 3 3 4 2 3 4 7 10 1 2 2 5 11
24 27 26 27 31 34 37 38 38 35 46 47 36 14 4 9 17 29 23 20 14 8 1 6 10 6 5 3 2 4 4 6 7 6 1 2 3 3 3 2 4 2 5 3 2 2 8
25 25 25 25 29 34 33 36 35 38 42 38 27 25 5 6 13 20 20 15 10 12 5 11 6 3 3 2 2 2 4 3 6 6 4 2 0 4 3 1 6 6 5 1 2 3 4
25 25 25 25 30 33 32 28 34 39 29 32 37 34 9 5 14 21 14 12 10 14 6 11 6 3 3 2 3 2 2 3 2 6 7 6 6 3 2 2 5 6 5 2 4 5 8
24 23 24 28 30 32 29 29 35 33 28 29 19 39 30 8 4 13 17 15 9 5 7 9 6 10 5 4 1 3 2 2 2 2 6 3 4 3 7 3 5 3 4 5 6 4 5
Wind_Direction
271 267 262 269 264 267 272 277 281 284 289 291 291 301 302 309 316 317 319 317 311 313 309 314 319 324 339 245 260 271 352 180 181 195 221 240 243 244 245 247 229 235 268 231 65 85 127
271 275 267 263 270 264 265 272 278 281 285 288 288 298 299 306 313 316 316 315 309 309 306 313 312 344 265 263 239 90 78 158 179 197 224 241 238 241 282 279 240 204 270 102 132 128 93
271 271 270 269 272 270 261 264 271 276 279 284 288 294 298 304 311 312 313 311 307 303 299 310 308 306 262 245 308 160 152 182 203 211 230 246 267 294 264 298 290 296 242 131 230 165 110
265 266 266 268 265 268 266 261 264 271 275 280 287 291 294 301 308 308 308 310 308 296 299 309 313 290 264 265 250 264 225 235 220 222 259 315 314 296 301 318 230 256 232 182 193 218 133
261 264 265 262 261 264 263 261 259 264 270 274 281 287 289 298 305 306 308 309 307 293 301 293 298 220 267 260 232 233 225 245 182 224 232 272 263 245 244 250 213 213 239 206 191 224 141
257 258 260 259 258 262 259 258 254 258 264 268 274 281 284 294 301 304 305 302 290 290 294 250 265 283 254 238 211 227 177 211 192 195 198 227 220 229 226 210 184 201 216 231 210 202 201
253 253 253 256 253 253 257 254 252 255 257 261 267 276 279 289 297 301 300 289 221 200 232 231 228 244 233 235 192 230 180 203 228 194 220 196 213 216 170 199 211 239 226 226 222 160 210
252 252 250 249 252 252 255 255 258 253 254 255 260 268 274 284 294 287 254 249 333 14 294 225 245 260 277 283 252 227 181 202 217 235 51 263 220 286 201 243 243 231 245 275 103 177 247
252 251 251 246 246 251 252 255 252 256 252 248 251 259 263 278 284 247 228 241 275 350 267 257 209 228 246 226 249 203 194 219 114 51 322 294 349 276 283 242 223 236 250 154 251 169 231
251 249 246 245 243 248 247 246 249 248 250 242 243 246 247 260 240 235 233 256 253 280 276 208 194 224 239 229 229 248 191 238 109 204 200 323 279 225 255 249 232 276 334 234 256 192 230
247 248 246 245 244 245 241 244 244 244 243 244 235 237 236 227 320 224 41 179 152 205 272 180 185 188 208 213 224 209 229 257 236 188 181 206 270 269 202 289 300 137 266 279 262 244 136
243 244 245 243 241 238 238 241 242 240 240 240 226 227 223 239 252 241 345 313 187 232 238 156 148 178 219 208 231 201 184 234 48 217 238 129 282 291 65 233 266 162 231 252 270 263 111
252 240 240 242 238 235 237 239 236 236 238 232 220 220 214 205 231 247 243 238 212 228 240 184 186 192 215 206 222 208 194 204 221 195 204 217 223 153 188 220 201 227 245 220 15 350 261
248 247 236 237 230 228 235 233 234 230 229 228 214 215 222 223 247 287 219 211 229 203 241 94 187 196 209 211 210 207 223 207 216 233 194 219 333 190 200 255 128 296 250 353 182 184 277
244 242 233 232 229 224 226 229 230 227 223 221 201 204 225 228 218 254 220 212 209 242 198 201 193 206 208 223 207 202 230 209 211 225 251 326 139 333 342 285 276 348 300 357 217 197 326
244 238 226 222 225 220 217 225 227 221 219 213 179 202 231 213 210 238 221 224 224 239 291 170 207 214 214 213 183 213 206 223 224 214 129 155 23 265 242 248 238 259 342 301 227 283 267
238 227 222 222 234 222 218 224 222 218 213 204 192 206 230 188 174 219 219 217 235 229 240 260 222 210 231 194 200 221 219 196 202 171 236 167 194 195 157 210 249 171 243 240 291 261 10
235 228 219 217 223 229 220 216 217 212 204 198 203 206 164 157 181 212 220 216 229 237 199 240 257 234 214 237 192 227 236 182 188 220 197 234 320 260 226 65 341 319 285 217 168 275 178
233 222 219 218 214 224 222 215 215 207 199 183 190 185 159 164 199 202 213 222 228 232 212 211 237 247 199 235 208 220 206 26 77 182 280 99 218 268 286 195 212 244 252 253 274 72 252
220 220 219 220 212 217 216 215 211 205 201 193 182 179 180 213 217 199 201 213 219 233 240 204 224 229 220 223 195 208 192 121 124 92 49 333 249 262 240 257 341 200 242 240 225 150 242
214 218 221 212 206 214 215 216 210 204 198 199 218 203 178 191 207 202 202 213 212 215 222 238 210 216 206 211 195 219 212 118 143 126 161 232 245 260 270 279 288 301 294 243 243 228 230
214 218 215 216 210 210 207 211 200 200 196 209 211 199 166 186 193 210 213 212 207 206 198 230 214 196 199 194 199 197 213 161 180 166 196 193 249 285 291 293 289 273 275 275 273 276 256
211 210 213 214 213 195 201 202 196 197 191 207 227 263 176 190 183 202 216 207 217 204 200 219 210 198 217 151 73 63 68 80 200 166 192 176 235 142 251 346 348 322 244 249 261 264 263
201 201 207 205 187 192 195 197 207 211 203 207 219 237 215 183 189 200 204 211 208 214 182 191 216 228 109 112 90 79 77 81 94 64 194 181 216 84 151 311 256 239 27 354 344 316 309
185 187 181 186 194 196 195 198 201 208 211 215 214 287 202 211 187 192 204 204 202 215 184 157 28 110 148 111 108 106 90 56 190 143 160 208 136 135 148 216 284 307 141 22 47 46 41
190 189 190 189 192 192 193 199 202 209 213 222 232 294 268 195 206 193 193 196 201 127 51 116 88 126 129 105 115 178 175 218 168 140 145 116 161 165 175 224 218 93 97 53 358 165 47
191 194 195 195 194 191 195 197 206 202 210 218 227 237 255 213 198 194 198 197 149 132 202 132 136 111 345 94 134 168 203 231 147 163 167 100 259 177 144 233 293 83 105 82 224 73 64
198 200 200 200 198 197 199 202 200 197 215 207 219 236 260 270 174 193 196 181 172 159 180 133 138 160 142 130 145 160 112 210 206 183 160 168 157 185 120 150 267 131 125 135 56 10 13
203 203 199 192 194 198 209 192 193 207 210 204 235 236 243 240 87 97 65 53 42 53 133 170 158 158 162 151 141 77 112 20 47 192 181 188 182 178 174 198 141 120 46 55 44 15 3